Theta_e
325 328 329 328 328 328 328 328 329 329 329 330 330 330 331 331 331 330 332 332 331 330 330 329 327 328 329 328 326 326 325 324 323 323 323 323 324 324 324 324 324 324 323 322 322 323 321 321 320 319 319 319 317 316 316 316 317 317 316 316 313 311 311 312 312 314 313 312 314 316 318 319 317 313 311 310 310 310 309 306 305 304 304 304 306
327 327 328 328 327 328 328 328 328 327 328 329 329 329 330 331 330 331 332 331 331 331 330 328 327 328 328 327 325 325 323 321 321 322 323 323 322 322 322 321 320 321 321 320 320 319 318 318 317 317 317 317 316 316 316 316 313 314 315 312 313 311 309 311 311 312 310 309 310 312 315 316 316 312 309 308 309 309 308 306 305 303 302 303 305
325 326 327 327 327 327 327 327 328 328 328 329 330 330 330 331 331 331 331 330 330 331 329 327 328 330 328 326 324 322 323 323 322 322 321 319 319 320 320 319 319 318 319 319 317 317 317 316 315 315 315 316 313 312 312 312 312 311 312 311 309 311 310 311 310 312 309 311 312 311 308 309 313 311 310 307 306 306 307 306 304 302 300 301 303
323 324 325 326 326 327 327 326 327 328 328 329 330 330 331 331 331 331 330 329 329 330 329 328 330 328 327 325 323 322 320 322 320 320 318 317 316 317 318 318 317 317 317 317 316 316 315 314 314 314 313 314 312 311 310 310 310 310 310 311 309 306 307 308 310 309 309 309 306 307 310 305 303 306 306 307 306 303 303 304 305 302 301 300 301
323 324 324 325 325 325 326 327 328 327 327 328 330 330 331 331 331 330 329 329 329 330 328 330 328 324 323 322 322 320 321 319 317 316 317 317 315 315 315 317 317 316 316 316 316 314 314 313 313 313 312 312 312 310 309 309 309 309 308 308 307 306 305 306 307 308 306 308 310 307 304 303 302 305 304 306 307 303 301 301 303 302 301 300 299
324 324 324 325 325 326 326 327 327 327 327 329 331 331 332 331 331 330 329 329 328 328 329 328 325 322 320 319 318 317 316 316 315 313 313 313 312 314 315 316 316 315 315 315 316 315 312 312 312 312 311 311 311 310 309 309 309 308 308 307 306 307 306 305 304 306 306 306 304 305 306 304 302 302 302 299 305 304 303 300 298 301 301 299 298
325 325 325 324 325 325 326 327 327 327 328 331 331 331 332 331 330 330 330 329 328 328 329 328 323 322 321 321 319 317 316 316 315 315 313 313 313 313 313 314 314 314 314 314 313 314 312 312 311 311 311 311 312 309 308 308 308 308 309 307 306 307 306 303 303 303 304 304 303 303 302 302 302 300 297 298 295 300 301 299 296 298 300 299 297
324 324 324 325 325 325 325 327 328 328 330 331 330 331 330 330 329 329 330 329 328 329 329 327 323 322 321 320 320 317 315 313 314 313 314 314 312 312 312 312 312 312 312 312 313 315 313 311 311 311 311 312 311 308 307 307 307 307 307 306 306 305 303 302 300 301 300 300 303 300 300 299 298 298 300 299 297 291 294 298 296 298 299 298 297
324 323 323 324 325 326 327 327 329 330 330 330 330 330 330 329 329 329 329 329 328 330 329 327 325 323 322 320 317 316 315 314 315 315 313 313 311 312 312 311 311 311 311 311 311 312 315 311 310 310 310 310 311 307 307 306 305 304 303 303 303 303 303 302 300 298 298 297 298 298 298 297 296 296 296 297 292 289 291 290 291 294 297 298 297
325 324 324 325 326 327 328 329 329 330 330 330 330 329 328 328 328 328 327 327 328 329 329 327 326 324 321 318 316 316 316 315 314 312 311 311 310 310 310 310 310 309 309 308 309 309 309 310 309 309 309 310 309 305 305 304 304 303 303 303 302 301 301 300 299 298 298 297 297 296 294 294 294 293 293 293 293 293 290 289 290 290 290 294 297
324 324 324 325 327 328 328 328 328 329 329 329 328 328 327 327 327 327 327 327 328 329 328 326 325 323 320 318 316 315 314 313 311 310 309 309 309 309 309 308 308 307 307 307 306 307 308 310 307 307 308 309 307 305 304 303 303 302 302 302 301 299 298 298 298 298 297 296 295 295 294 293 292 291 291 292 292 290 290 289 290 291 291 292 294
324 323 323 325 326 327 327 327 327 328 327 327 327 326 326 326 326 324 325 327 328 328 327 325 324 322 320 318 316 315 314 312 309 308 308 308 308 307 307 306 305 305 305 305 305 305 306 305 307 305 306 304 304 304 304 303 303 302 301 301 300 300 299 298 296 295 295 295 295 295 295 295 295 294 294 293 292 291 291 289 290 291 291 292 293
323 323 323 324 324 325 325 326 327 326 325 326 325 325 324 323 323 323 323 326 327 328 326 325 323 322 320 318 317 316 315 313 311 310 309 308 307 306 305 304 303 303 303 303 304 304 305 304 304 304 304 305 304 303 303 303 302 301 300 299 299 298 297 297 296 296 296 295 295 296 295 295 295 296 295 294 294 293 292 290 290 291 290 290 292
323 323 324 324 325 325 326 326 327 325 325 324 324 323 322 321 322 322 321 324 325 326 325 324 324 322 321 319 318 317 315 313 311 309 309 308 307 305 304 304 303 303 302 302 303 304 303 304 303 303 304 305 305 304 303 302 301 300 299 298 298 298 298 297 296 297 296 296 296 295 295 295 295 296 295 295 293 293 291 290 290 290 291 290 291
324 323 323 324 325 326 326 326 326 325 324 323 322 321 321 320 320 319 318 320 323 323 324 323 323 322 320 319 317 316 314 311 310 309 307 306 306 306 305 305 303 303 302 303 305 303 303 303 303 302 302 303 303 303 303 302 302 301 300 299 299 298 297 297 296 296 295 295 295 296 295 295 295 296 295 294 294 294 292 292 290 288 288 289 289
323 323 323 325 325 326 326 326 326 324 323 322 321 320 320 319 319 318 318 318 320 321 321 321 320 320 319 317 316 315 314 311 310 309 307 307 307 306 305 304 303 302 302 301 302 301 301 301 302 301 302 302 302 301 301 301 300 299 299 298 297 299 296 296 296 296 295 295 295 295 294 294 295 295 295 295 294 294 294 293 292 290 287 285 288
323 323 323 324 325 325 326 326 325 324 322 321 320 319 318 317 317 316 316 316 317 318 318 318 318 318 316 316 314 312 311 309 308 307 307 307 307 306 304 304 303 302 301 302 300 300 300 300 300 300 300 301 301 301 301 300 300 299 298 297 297 297 297 295 296 295 295 295 295 295 294 294 294 295 295 295 294 294 294 294 293 292 291 287 286
323 324 324 325 325 325 325 325 324 323 322 320 319 319 318 317 316 315 315 315 315 316 316 317 316 315 314 313 312 311 310 308 308 307 307 306 306 305 304 303 301 301 301 301 299 299 300 302 299 299 299 300 300 300 300 299 299 298 298 297 297 298 297 297 297 296 296 296 296 294 294 293 294 294 293 295 295 294 294 293 293 293 293 289 288
322 323 323 324 324 324 325 324 323 322 321 319 318 317 316 316 316 316 314 314 314 315 316 315 315 314 313 312 310 310 309 308 308 307 307 305 304 304 302 300 300 301 301 298 298 298 298 298 298 298 299 299 299 300 300 299 298 297 298 297 297 296 296 296 297 297 296 296 294 293 293 293 293 293 293 293 294 295 294 293 293 293 293 292 290
322 322 323 324 324 325 324 322 321 320 319 317 316 315 315 315 315 314 313 313 313 313 314 313 312 312 310 310 309 309 309 308 307 306 306 305 304 302 300 299 298 299 297 297 297 297 297 297 297 298 298 298 299 299 299 298 298 297 297 296 296 296 295 295 295 296 296 295 294 293 294 293 293 293 293 293 293 294 294 294 293 293 292 292 292
321 322 322 323 324 324 323 322 321 319 318 316 315 314 314 314 313 312 312 312 312 312 312 311 310 310 309 308 307 308 308 308 307 306 305 304 302 301 299 298 297 296 296 296 296 296 297 297 297 299 297 298 298 298 298 298 297 296 296 296 296 296 295 295 297 295 296 295 295 293 293 294 293 293 293 293 293 293 293 293 293 293 292 292 291
321 322 322 323 323 323 322 321 319 317 315 314 314 314 313 312 312 312 312 312 311 311 310 309 309 308 306 306 306 306 307 307 306 305 303 302 300 299 298 297 296 296 296 296 296 296 296 296 296 295 296 296 297 297 298 297 297 296 296 297 296 295 295 294 295 294 295 295 294 293 293 294 294 292 293 292 292 292 292 292 292 292 291 292 292
321 321 322 322 322 321 321 319 317 316 315 314 313 313 312 312 312 312 311 311 311 311 310 309 307 306 306 306 306 306 306 306 304 303 301 300 299 298 298 295 295 295 296 295 295 295 295 295 294 294 295 295 296 296 297 297 296 296 296 296 296 295 295 294 294 294 294 294 295 295 294 294 295 292 292 292 292 292 292 291 292 292 291 292 292
321 320 321 322 320 320 319 317 316 315 314 313 313 313 312 312 312 311 311 311 311 310 309 308 307 306 305 305 305 305 305 304 303 302 300 299 298 297 297 295 294 294 294 294 294 294 294 294 294 294 294 294 295 296 296 296 296 296 296 295 295 295 295 295 294 294 294 294 294 293 294 294 294 292 291 292 292 292 292 292 292 292 292 292 292
320 320 320 319 319 318 317 317 316 315 314 313 312 312 311 311 311 311 310 311 310 310 309 308 307 305 305 305 305 304 304 303 302 300 299 298 297 296 296 294 294 293 293 294 295 293 293 293 293 293 293 293 294 295 295 295 296 296 296 295 295 295 295 295 295 294 297 294 295 294 293 293 293 292 292 292 292 291 292 292 292 292 292 292 292
319 319 318 317 317 318 317 316 315 315 314 313 312 312 311 311 311 311 310 310 309 309 309 307 306 305 305 304 304 303 302 301 300 299 298 297 296 296 295 295 294 293 292 292 292 293 293 292 292 292 292 292 293 294 294 295 295 296 296 296 296 295 295 295 295 296 295 295 295 294 294 294 292 292 292 292 292 292 292 293 293 293 292 292 291
319 319 318 317 316 316 316 316 315 315 314 313 312 311 311 311 310 310 310 309 309 309 308 307 306 305 303 303 302 302 301 300 299 298 297 296 296 295 294 293 294 292 292 292 292 292 293 292 291 292 292 292 292 292 293 293 294 295 295 296 296 295 295 295 295 295 294 294 294 294 295 293 293 292 292 293 293 293 294 294 294 293 292 291 291
319 318 317 316 316 316 316 315 315 314 314 313 312 311 311 310 310 309 309 309 309 308 308 307 306 304 303 302 302 301 301 300 298 298 297 296 295 294 294 294 293 292 291 291 291 292 293 292 292 292 292 293 292 292 291 292 293 294 296 295 296 296 296 295 295 294 295 295 294 294 293 294 293 293 294 296 296 295 295 294 294 293 292 292 291
317 317 317 316 315 315 315 315 315 314 313 312 311 311 311 311 310 309 309 308 309 308 307 306 305 304 303 302 302 301 300 300 299 297 296 295 295 294 293 293 293 293 293 291 291 291 290 290 290 291 292 293 293 293 293 292 293 293 294 295 296 297 296 295 294 293 293 294 295 295 294 293 301 299 299 298 298 297 295 293 293 293 293 292 291
316 317 317 317 316 316 315 315 314 313 312 312 311 311 310 310 309 309 308 308 308 307 306 306 305 304 303 302 301 301 300 299 298 297 296 295 294 294 293 292 292 291 291 291 290 291 290 290 290 290 291 292 293 294 298 297 296 295 294 295 295 295 296 296 296 294 294 294 294 294 297 301 301 299 298 296 295 295 295 295 294 293 293 292 291
317 317 317 317 317 317 316 315 314 313 312 312 311 311 310 309 309 308 308 308 308 307 306 305 304 304 304 302 301 300 300 298 298 297 295 295 294 293 292 292 291 291 291 292 290 289 289 290 290 291 291 292 293 295 295 293 293 295 294 294 294 294 294 295 295 294 293 295 295 295 294 296 297 295 297 296 293 293 293 293 293 294 294 293 292
317 317 317 317 316 316 315 314 314 313 313 312 311 310 309 308 308 308 307 308 307 306 305 305 304 303 303 302 302 301 299 299 299 297 296 295 294 292 292 292 291 291 291 290 289 289 289 289 290 290 291 292 293 295 292 293 293 293 295 295 294 294 294 293 293 293 294 295 295 294 293 293 294 296 298 294 294 293 292 292 292 292 292 292 292
317 317 317 317 317 316 316 315 314 314 313 312 312 310 309 308 307 308 308 307 306 306 305 304 303 302 302 302 301 300 299 298 298 297 296 294 293 292 292 291 291 291 290 288 288 288 288 289 290 290 291 292 292 293 292 292 292 292 292 293 293 293 294 292 292 293 292 294 294 295 294 294 293 296 296 293 293 293 293 292 292 293 292 292 290
318 318 317 318 317 317 316 316 315 315 314 313 312 311 310 309 308 308 306 306 305 305 304 303 302 302 302 301 301 300 299 298 298 296 295 293 292 291 291 291 292 291 288 288 287 288 288 288 290 290 290 290 291 293 291 292 291 291 291 292 291 291 292 292 292 292 293 292 292 293 292 293 293 293 294 293 293 292 291 291 291 291 291 292 291
317 317 317 317 317 316 316 315 315 314 313 312 311 311 310 308 308 307 307 306 305 304 303 302 302 302 301 301 301 300 299 298 297 296 294 293 291 290 290 291 290 289 288 287 287 287 288 290 290 289 290 290 292 292 291 291 291 290 290 290 291 291 291 291 291 291 292 292 292 292 292 292 292 293 294 294 293 291 290 290 290 290 290 290 291
317 317 317 317 317 316 316 315 315 314 313 312 311 310 309 308 308 307 306 306 305 304 303 302 301 301 301 301 300 300 299 298 296 295 293 291 290 290 290 290 289 288 288 288 287 289 289 288 288 289 289 289 290 291 291 291 291 291 291 291 290 290 290 290 291 291 291 291 291 292 292 293 293 292 293 291 291 292 291 290 289 290 290 290 290
318 318 318 318 318 317 316 315 314 314 312 311 311 310 308 307 306 306 306 305 304 303 302 302 301 301 301 301 300 300 299 297 296 294 292 290 290 290 289 290 288 288 288 288 288 288 288 287 288 289 288 288 289 291 290 291 290 290 290 289 289 290 290 290 289 290 290 291 291 292 294 294 293 292 292 290 290 291 290 290 289 289 289 289 289
314 314 315 316 316 316 315 315 313 313 312 312 310 309 307 306 305 305 305 304 304 302 302 302 301 301 301 301 301 300 299 298 295 293 291 290 290 290 290 291 289 289 289 288 288 288 287 288 288 287 288 288 288 291 291 291 290 291 290 288 288 288 288 288 289 290 290 290 291 295 296 294 292 292 291 289 289 291 290 289 289 288 288 288 289
315 316 315 315 315 315 314 314 313 312 311 311 310 308 306 305 304 304 304 303 303 302 302 301 301 301 301 301 301 300 299 298 296 294 292 290 290 290 291 291 290 290 290 290 292 288 288 288 287 288 295 289 289 292 291 290 290 291 291 288 288 288 289 287 287 290 290 289 289 291 293 293 292 292 289 289 289 291 291 290 289 288 287 287 288
313 314 315 315 314 313 312 313 312 311 311 310 309 308 306 305 304 303 303 302 302 302 302 302 302 301 301 301 301 300 299 298 297 295 293 291 292 292 291 291 291 291 291 291 291 289 289 289 290 292 294 289 289 290 293 290 290 291 290 289 288 289 290 288 287 292 290 289 289 289 292 290 289 289 289 289 289 289 291 291 290 289 288 287 290
313 313 309 313 313 313 313 312 313 311 310 310 308 307 305 305 303 302 302 303 303 303 303 302 301 301 301 301 301 300 299 299 298 296 294 294 293 292 292 291 291 291 292 291 290 290 290 290 290 290 291 289 290 289 292 290 290 290 291 290 288 288 287 287 286 289 286 287 288 289 290 291 289 289 289 289 289 289 290 292 291 289 289 290 290
311 310 311 313 312 312 312 312 312 310 310 309 308 306 305 304 303 302 302 303 303 303 302 302 301 300 300 300 300 300 300 299 298 297 295 294 294 294 293 293 292 292 292 292 291 291 290 290 290 291 292 290 293 296 288 292 290 290 290 291 289 291 289 288 289 287 287 288 288 288 289 290 289 289 289 289 289 289 289 293 291 288 288 288 290
308 309 311 312 311 311 311 311 310 309 309 309 308 306 304 303 303 303 303 303 303 302 301 301 300 300 300 300 300 299 299 299 298 297 296 294 294 293 294 294 293 293 293 291 290 291 290 290 291 291 292 292 290 293 293 292 291 290 289 290 290 289 288 293 288 289 288 289 288 289 289 290 289 289 289 289 289 289 290 291 288 288 288 288 289
310 311 311 311 311 310 310 309 308 308 308 308 308 305 304 303 303 304 302 302 302 301 301 300 300 300 299 299 299 299 299 298 298 297 296 294 293 294 294 294 293 293 293 292 291 291 290 290 291 291 292 292 292 290 292 293 292 290 289 289 289 288 289 291 291 289 288 288 288 289 290 289 289 289 288 288 288 289 289 288 288 288 288 289 288
309 310 309 311 310 309 308 306 306 307 308 308 308 306 303 302 303 302 301 301 301 300 299 299 299 299 299 299 299 299 298 298 297 297 295 295 294 294 293 293 294 293 293 292 291 290 291 291 291 291 291 292 292 291 290 291 291 290 289 289 288 288 288 288 290 290 292 291 289 289 288 288 289 288 288 288 288 289 288 288 288 287 290 288 287
308 308 308 310 309 308 306 305 305 306 307 307 307 306 303 303 301 301 301 301 300 299 299 299 299 299 299 298 298 297 297 297 297 297 296 296 295 295 294 293 293 293 292 292 290 291 291 291 291 290 291 291 292 291 291 290 292 293 291 289 289 288 290 290 290 290 289 289 288 288 289 288 288 289 290 290 289 290 288 288 288 289 288 287 286
307 307 307 308 307 306 304 303 303 304 306 306 306 306 305 302 300 301 301 300 299 299 299 298 298 298 298 298 297 297 296 297 297 297 297 297 296 295 294 293 292 292 291 291 290 291 291 291 291 290 290 291 291 291 290 289 288 288 289 291 291 290 290 290 290 290 289 289 289 290 289 288 288 288 288 288 287 288 288 289 288 287 287 287 287
306 306 307 307 307 305 303 303 303 304 305 306 306 305 303 301 301 301 300 300 299 298 298 298 298 298 297 297 297 293 295 296 296 296 296 295 295 295 294 293 292 292 291 290 290 290 291 291 291 291 291 290 290 290 290 290 289 288 288 287 286 289 288 287 287 288 288 290 290 289 288 288 288 288 288 288 288 288 287 287 287 287 287 287 287
305 306 306 306 305 304 303 303 303 303 304 304 304 304 301 300 300 300 299 299 298 297 298 297 297 297 297 297 297 296 296 296 295 296 296 296 295 295 294 294 294 293 293 292 291 292 292 293 293 292 291 290 290 290 292 290 291 289 288 287 286 286 286 286 289 289 290 288 288 289 288 288 288 285 286 287 287 287 287 287 286 287 287 286 286
306 307 307 306 305 304 303 303 302 302 303 303 302 301 301 300 300 299 299 298 297 297 297 296 297 297 296 296 296 296 296 295 295 295 294 294 292 294 294 294 293 293 292 292 292 293 294 293 292 293 293 293 292 293 292 290 289 289 288 287 287 287 286 288 288 287 289 287 286 286 287 286 286 286 286 285 286 286 286 286 287 286 286 286 287
304 304 303 304 304 303 303 301 301 301 302 301 300 299 299 299 299 299 299 298 298 297 296 296 296 296 295 296 296 295 295 295 295 295 294 293 292 291 291 292 293 293 292 291 291 292 291 291 294 293 293 291 291 291 291 290 289 289 289 287 287 288 288 288 288 286 285 284 284 285 286 286 285 286 284 285 285 285 285 285 286 286 286 285 285
Wind_Speed
6 7 7 8 8 8 7 7 7 8 8 8 8 8 8 9 9 8 7 7 7 7 7 7 7 7 5 6 6 4 5 5 6 5 6 5 6 6 6 6 6 7 6 6 6 6 5 5 5 5 4 5 5 4 3 3 4 3 4 5 5 6 7 6 6 2 2 4 6 6 6 7 9 10 10 8 8 6 7 8 8 9 9 9 9
8 7 8 10 8 9 7 7 9 9 7 8 9 9 9 10 9 9 7 7 6 6 7 6 4 6 7 7 7 5 5 5 6 5 5 5 7 7 7 7 7 6 6 6 5 5 5 5 5 5 4 4 4 3 4 4 4 4 2 5 5 6 5 6 7 1 5 3 4 3 3 4 6 8 9 8 7 7 8 8 8 9 10 9 8
8 7 7 8 10 10 7 7 7 8 8 8 8 10 10 9 8 8 7 7 6 6 7 6 4 5 6 5 7 7 5 4 6 5 5 7 7 6 6 6 6 6 6 6 6 5 5 4 4 4 5 3 4 5 5 6 5 5 4 4 5 5 5 6 8 7 3 3 3 4 1 0 2 3 6 8 8 8 7 9 8 10 11 9 7
10 10 9 9 8 8 7 7 7 7 8 8 9 10 8 7 7 8 7 6 6 6 6 6 7 7 7 7 6 6 6 5 7 6 6 7 7 6 6 6 6 6 6 6 5 5 4 5 5 5 5 4 4 5 5 5 5 5 5 5 4 7 5 7 8 8 6 2 3 2 1 1 1 3 4 3 6 9 9 9 8 8 9 9 7
8 8 10 9 10 8 8 7 7 8 8 8 9 8 7 8 8 8 8 7 6 7 8 8 9 9 8 8 8 9 5 5 6 6 5 6 6 6 5 5 5 6 5 5 5 5 5 5 5 5 4 4 4 5 5 5 5 5 6 6 5 5 6 6 9 10 12 9 3 4 2 3 2 3 4 2 3 5 8 8 8 8 9 9 8
9 9 8 8 9 8 9 9 9 8 8 7 7 7 7 7 8 8 6 7 7 8 9 8 8 10 8 9 8 6 6 5 5 5 4 5 5 4 5 5 5 6 5 5 5 5 5 5 5 5 5 5 4 5 5 6 7 7 6 5 7 5 7 7 7 9 10 11 11 7 4 3 1 3 2 0 2 4 4 6 8 6 6 7 7
8 8 9 10 10 8 9 9 8 9 7 7 7 7 8 8 8 8 7 7 7 8 8 8 8 7 8 7 8 7 8 4 4 5 6 4 5 6 5 5 5 6 6 6 6 5 5 5 5 5 5 5 4 5 6 7 6 6 5 6 5 4 5 9 7 3 6 9 8 9 10 7 4 2 3 1 3 3 5 6 7 7 5 6 8
10 10 11 11 11 10 10 9 8 8 7 7 7 7 8 8 8 8 7 7 7 8 8 8 9 7 6 6 6 7 6 7 6 6 5 5 6 5 4 5 6 6 6 6 5 5 5 5 5 5 6 5 5 6 6 6 6 6 7 7 8 7 8 8 7 6 7 4 6 7 8 8 7 8 4 2 2 3 3 2 5 8 4 4 7
11 10 11 12 12 10 9 9 8 8 8 8 7 7 7 8 7 7 7 7 8 9 9 8 7 7 7 7 7 6 8 7 6 5 6 5 8 5 5 5 5 6 6 5 6 6 4 5 5 6 6 6 5 6 6 7 7 8 8 9 9 9 8 7 8 7 7 5 4 6 5 6 6 7 6 5 5 5 2 5 8 2 2 4 5
10 9 10 10 11 10 9 8 8 8 7 7 7 7 7 7 8 8 7 7 8 8 8 8 7 7 8 7 10 8 7 6 6 6 6 5 7 6 5 5 5 6 5 6 6 6 6 5 6 6 6 6 6 7 7 8 8 9 9 9 9 11 8 9 9 7 7 6 7 4 5 3 4 5 7 6 4 5 3 5 6 9 7 3 2
10 10 10 10 9 9 9 10 8 8 7 8 8 8 7 7 9 9 8 7 9 8 9 8 7 6 8 9 10 11 9 8 8 6 6 5 6 5 5 5 5 5 5 5 6 5 6 5 6 6 6 6 6 7 7 7 7 8 9 11 11 11 9 10 10 9 7 8 8 7 7 7 6 6 4 5 5 4 4 5 5 6 5 7 5
11 10 10 11 11 10 10 10 9 10 9 9 8 8 7 7 8 9 8 9 8 8 8 8 7 6 7 9 10 10 10 8 8 8 6 7 6 6 4 5 5 5 5 5 5 5 5 6 6 6 6 7 7 6 6 7 7 8 8 8 9 9 9 9 9 10 9 7 7 6 6 6 6 5 4 4 5 4 3 3 6 6 1 1 4
11 11 11 11 11 11 12 12 9 10 10 10 10 8 8 7 9 10 9 9 8 9 9 8 8 8 8 9 9 8 8 8 8 7 6 6 5 6 6 6 5 6 5 6 5 5 5 6 6 6 6 6 6 7 7 8 8 9 8 9 9 9 8 9 8 8 8 7 6 5 5 5 6 4 4 4 3 3 4 5 3 3 3 6 4
11 11 12 12 12 11 13 12 10 9 11 10 10 9 8 8 9 10 9 8 8 8 9 9 8 8 8 8 8 7 7 7 6 7 5 6 6 6 6 6 6 5 5 5 4 5 6 5 6 6 6 6 6 7 8 8 8 8 8 9 8 7 8 10 9 8 7 8 5 5 5 5 5 4 4 4 4 4 5 5 4 3 2 4 5
12 12 12 12 14 13 13 12 10 8 11 10 9 9 8 9 9 9 9 7 9 9 8 9 7 8 7 7 7 6 7 7 6 5 7 7 6 6 5 5 6 5 5 4 4 6 6 6 6 7 6 6 7 8 7 8 8 8 7 8 7 7 8 8 8 9 8 8 8 6 6 5 5 4 4 5 4 4 3 3 5 9 7 5 9
12 12 12 11 12 14 12 11 10 9 10 10 10 9 9 9 9 10 10 8 8 9 8 8 7 7 8 9 8 8 6 7 6 5 5 6 6 6 6 5 5 6 5 5 5 6 7 7 6 7 6 7 7 8 8 8 8 8 7 7 8 5 8 9 7 7 8 8 8 6 6 6 4 4 4 4 4 3 3 3 3 5 7 8 7
13 13 12 13 10 12 13 12 10 11 10 10 10 9 10 9 10 10 9 8 8 8 8 8 8 8 8 8 9 9 9 9 8 8 7 6 7 6 6 5 6 5 5 4 6 6 6 6 7 6 6 6 7 7 8 8 8 8 8 8 8 6 7 8 7 7 7 6 6 7 6 5 4 4 4 3 3 3 3 3 3 5 3 3 6
14 13 12 12 11 12 12 12 11 12 12 11 10 8 9 10 12 12 10 10 8 8 8 8 9 9 9 9 8 9 9 9 9 9 7 8 7 6 6 7 6 5 5 5 6 7 6 6 7 6 6 6 7 7 8 8 8 7 7 7 6 7 7 6 5 6 6 5 5 5 5 5 4 4 3 2 3 3 3 3 3 2 2 3 2
13 13 15 15 13 12 13 13 11 11 13 12 10 9 8 8 11 13 12 10 10 7 8 7 7 7 7 8 9 9 8 8 8 8 8 8 8 6 6 7 6 5 6 6 7 6 6 6 6 6 6 7 7 7 7 7 8 7 6 6 6 7 7 7 5 5 4 5 6 6 5 5 3 4 3 3 3 4 4 3 3 1 1 0 2
14 12 13 16 17 14 13 14 13 12 13 12 11 9 10 9 11 9 10 10 9 9 9 9 7 8 8 8 7 8 8 9 9 9 8 8 7 7 7 8 6 5 6 6 6 6 6 6 5 6 7 6 7 6 7 7 7 7 7 7 6 7 7 7 5 4 4 4 5 6 5 4 3 4 4 5 5 4 3 3 3 3 2 1 2
14 13 12 14 15 15 14 12 12 9 10 11 10 11 10 9 10 12 14 10 10 9 9 8 8 8 10 9 9 8 9 8 8 8 9 8 7 6 7 7 6 6 6 6 6 6 6 6 6 6 7 7 7 6 5 6 7 7 6 7 7 7 7 5 5 5 4 4 4 5 4 4 3 5 5 5 5 5 4 3 3 3 4 2 1
14 13 11 13 14 14 14 12 11 11 10 12 10 10 11 10 11 11 11 11 11 9 9 9 8 8 9 9 9 7 8 8 9 8 9 8 7 7 8 7 8 5 5 7 7 5 5 6 7 7 7 7 7 6 6 6 7 7 6 5 6 6 6 5 5 5 4 3 3 5 4 5 4 5 5 5 4 4 4 5 4 3 4 6 3
14 13 12 12 14 14 15 16 15 14 12 12 11 11 11 11 11 11 11 10 10 10 9 9 9 9 9 9 9 8 9 10 10 8 9 7 7 7 6 9 7 6 5 5 6 6 6 6 7 6 7 7 6 6 5 7 7 7 7 6 6 6 6 6 5 5 4 3 4 4 4 4 4 6 5 5 4 4 3 4 5 4 5 6 6
13 12 10 10 12 13 13 15 15 14 13 13 11 10 9 11 11 12 12 11 10 10 9 10 9 10 10 10 9 9 10 10 10 8 10 8 7 7 7 8 7 6 7 5 5 6 6 6 7 6 6 7 6 6 5 6 7 7 7 7 5 5 5 5 5 5 4 3 3 4 3 4 4 5 5 5 4 4 4 4 6 5 5 6 6
14 14 12 12 14 15 12 14 14 14 13 12 12 11 10 10 10 12 12 11 10 10 10 9 10 11 10 10 10 9 10 10 10 9 10 9 8 8 6 7 8 7 6 6 5 5 6 6 6 7 7 6 6 6 7 6 5 5 7 6 6 5 5 5 4 4 3 4 2 2 3 3 4 5 5 5 5 7 6 5 6 5 5 6 6
16 15 13 13 14 15 13 13 12 14 14 12 13 12 10 10 10 11 13 11 10 9 10 10 10 11 9 10 9 9 10 11 11 10 11 10 9 8 8 6 7 9 7 6 6 4 5 6 6 6 6 6 5 5 6 6 6 5 5 5 5 5 4 4 4 3 4 3 2 1 2 3 3 4 5 6 6 7 6 7 8 7 6 6 7
17 16 13 11 11 15 16 14 13 13 14 13 12 13 12 10 10 11 12 12 11 11 10 10 10 10 9 10 9 9 9 10 10 10 9 9 9 8 9 8 6 7 7 7 6 6 4 6 5 5 5 6 6 5 6 5 5 5 6 6 5 5 4 3 3 3 3 3 2 1 2 2 3 4 5 6 6 7 6 8 6 7 7 7 7
13 14 16 16 14 13 15 15 14 13 13 13 13 12 12 12 11 11 12 11 9 11 11 10 10 10 9 9 9 9 9 10 9 10 9 9 8 8 8 7 7 8 7 7 7 7 5 5 5 5 4 4 5 5 5 5 5 5 6 6 5 5 4 4 4 3 2 3 3 2 2 3 3 4 4 6 6 6 6 7 7 6 6 7 7
14 15 16 17 16 15 15 15 14 13 14 13 12 12 10 10 10 11 13 13 12 12 11 11 10 10 10 9 9 9 9 10 10 10 9 9 8 8 8 7 7 7 5 6 6 6 7 6 5 5 5 4 5 5 4 5 6 4 5 6 5 5 4 4 3 3 1 2 3 3 3 4 4 7 8 7 7 7 6 6 7 6 7 6 7
16 17 17 17 17 16 15 14 14 14 14 13 12 13 12 11 10 10 11 11 12 12 12 11 11 10 9 9 9 9 10 10 11 11 10 9 8 8 8 8 8 7 6 6 6 5 6 7 6 5 5 4 4 2 3 6 5 6 6 5 4 4 5 4 4 3 1 2 4 4 4 6 8 7 7 9 11 12 12 8 8 7 6 6 6
15 15 16 16 15 15 14 14 14 15 15 14 12 12 12 11 10 11 12 12 11 12 12 12 12 11 10 10 10 10 10 11 10 10 10 9 8 8 9 8 8 7 7 6 5 6 6 5 6 6 6 5 3 2 4 7 8 8 6 5 6 5 4 5 4 4 4 3 4 4 4 5 5 6 7 9 11 12 13 13 14 13 11 7 7
15 15 15 15 16 16 16 16 16 15 15 13 13 12 12 12 12 12 11 11 11 11 12 12 12 12 11 11 10 11 10 10 10 10 10 8 9 10 9 8 8 8 6 5 6 6 6 5 5 6 6 5 4 3 6 8 8 8 6 6 5 5 4 4 4 4 4 4 4 3 3 3 5 6 6 7 9 11 13 14 14 13 13 13 9
17 16 17 16 17 18 18 16 15 15 16 15 14 13 13 13 13 13 11 12 12 12 12 12 12 13 12 11 11 11 11 11 11 11 10 9 10 9 8 8 8 6 6 6 6 6 5 5 6 7 6 4 4 4 7 9 9 8 8 6 5 5 4 3 2 3 4 4 3 2 5 5 5 8 6 7 7 9 11 13 13 11 12 13 12
15 16 17 16 14 12 14 16 15 14 14 13 13 13 12 11 12 11 12 12 13 12 11 11 12 12 12 12 11 12 12 11 11 11 10 10 10 9 9 7 7 6 7 6 6 6 5 5 5 7 6 4 4 4 7 8 8 8 8 6 5 5 4 3 3 2 3 2 2 2 3 5 6 6 6 7 7 7 7 7 8 8 8 10 10
15 14 13 13 13 13 13 13 14 14 13 12 11 11 10 10 10 11 9 10 10 11 10 11 11 11 11 12 12 12 12 11 11 10 10 10 9 9 9 8 7 8 8 7 7 7 5 5 5 6 6 5 3 4 7 8 8 8 8 6 5 5 4 4 4 4 4 4 3 1 1 4 5 6 4 6 6 7 7 6 7 8 8 9 8
16 18 17 16 17 18 19 17 13 12 12 13 13 12 12 12 11 12 11 11 11 11 11 11 11 12 12 12 13 12 12 11 11 11 10 10 9 10 9 7 6 6 5 5 4 5 6 6 5 5 6 5 3 4 6 7 8 8 8 5 5 5 5 4 4 3 3 2 2 1 3 4 5 6 6 8 7 7 5 6 8 8 8 8 8
16 16 16 16 14 13 12 11 12 13 13 12 12 13 12 12 12 10 10 11 11 11 12 12 12 12 12 12 12 12 13 12 12 11 11 11 10 9 8 7 8 7 7 6 6 5 5 6 6 5 6 5 3 3 5 7 7 8 6 5 5 5 4 4 4 2 2 2 2 2 2 3 5 6 7 9 9 7 5 6 7 9 8 8 7
5 6 7 9 10 9 11 13 13 13 13 12 13 12 12 13 12 11 12 11 11 11 11 12 12 13 12 12 13 13 13 12 11 11 11 10 9 8 9 7 9 8 7 7 6 5 4 4 6 6 5 6 4 3 5 6 7 7 6 5 4 5 5 4 3 2 3 2 2 3 3 3 4 6 9 10 8 6 5 6 7 9 10 9 8
12 14 15 13 12 14 14 13 14 15 13 13 14 15 13 13 12 12 12 13 13 12 13 13 13 12 12 12 12 12 12 12 12 11 11 11 10 10 8 7 7 7 7 6 5 6 5 3 4 4 6 6 4 3 5 6 6 5 5 4 4 5 5 4 3 4 3 2 2 1 3 3 4 7 10 9 8 5 4 5 6 7 9 10 9
10 8 10 11 11 13 13 15 15 15 14 15 14 14 14 14 13 13 13 13 13 13 12 10 11 11 11 11 11 12 12 13 13 11 10 11 9 9 9 8 7 7 7 6 6 6 7 5 3 2 2 5 4 2 2 6 6 5 5 4 3 5 5 3 3 3 5 5 5 5 4 6 8 9 10 10 10 6 4 5 4 6 8 11 8
13 13 13 12 13 15 17 17 15 15 15 15 14 14 13 13 13 13 14 14 12 11 11 12 11 11 12 12 11 12 13 11 12 12 10 10 9 10 9 8 8 6 6 6 6 5 5 5 4 4 2 3 2 3 2 4 4 4 4 4 4 5 4 3 3 3 3 3 5 6 6 7 9 11 11 11 10 9 6 4 5 5 6 9 11
8 12 13 12 12 11 11 11 11 14 14 14 14 14 13 12 12 13 12 10 11 12 11 11 12 12 12 12 11 10 11 10 10 11 11 10 8 9 10 9 7 8 8 7 6 5 5 5 4 4 3 4 2 2 4 3 3 3 3 4 4 4 4 3 3 3 3 3 4 5 5 8 11 11 12 11 10 8 8 4 7 9 13 13 10
13 12 11 13 12 13 14 14 12 14 14 13 15 14 13 13 13 13 11 11 12 12 12 12 12 12 12 11 10 11 10 9 10 11 12 11 9 9 8 8 9 8 8 7 6 6 5 5 4 4 4 3 3 1 3 3 3 3 2 2 3 2 4 2 1 2 3 5 4 4 5 8 10 11 11 10 9 9 5 5 10 11 12 14 10
10 14 16 16 14 12 12 11 12 12 13 13 14 13 12 13 13 10 11 11 10 11 12 12 11 11 11 10 10 11 10 10 11 11 11 11 10 9 8 8 8 8 7 6 5 5 5 5 5 5 4 4 3 4 2 3 3 5 3 2 2 1 2 2 2 3 4 4 5 5 6 10 12 12 11 9 9 7 5 9 10 11 12 10 6
14 13 12 13 15 15 13 12 11 14 13 13 13 15 14 14 10 11 13 13 13 12 12 11 11 11 10 10 9 10 10 10 10 11 11 10 10 9 8 7 8 8 8 7 6 6 6 6 5 5 5 4 5 4 4 4 5 5 5 4 3 3 3 2 3 4 4 4 5 8 10 11 11 11 9 8 5 6 8 10 10 10 9 5 6
9 9 11 10 10 12 13 14 12 13 12 11 11 13 16 13 12 13 13 13 13 13 12 12 11 10 10 10 10 9 9 10 11 9 11 10 11 10 9 8 7 7 6 7 6 6 6 5 6 5 5 5 4 4 5 4 3 4 4 4 4 4 4 5 6 6 7 7 7 8 10 10 9 6 4 5 6 6 9 10 9 8 5 5 5
11 10 11 11 12 12 13 13 13 11 11 11 11 11 11 11 13 13 13 13 13 13 12 11 11 10 10 10 11 9 8 8 9 8 8 9 9 9 9 9 8 8 7 7 7 7 6 5 6 5 5 4 4 4 5 5 4 4 4 3 3 3 3 3 4 5 3 3 4 4 4 6 6 8 6 5 6 7 7 6 6 5 4 4 5
8 9 10 10 12 14 14 14 13 12 12 12 11 10 10 11 11 12 12 13 13 12 13 12 12 11 10 10 10 12 12 9 9 9 9 8 8 9 9 10 10 10 9 8 7 7 7 7 6 5 4 4 5 5 5 6 6 6 5 4 4 4 4 4 5 4 3 3 4 3 4 2 3 3 4 4 5 5 5 6 6 5 5 5 5
12 11 10 9 6 7 10 12 12 11 11 11 10 10 12 13 12 13 13 13 12 12 11 11 11 10 10 9 9 10 9 9 9 8 8 9 10 9 9 8 7 7 9 10 9 7 7 7 7 7 7 5 5 6 8 9 9 8 8 6 5 5 5 4 5 3 3 2 3 4 5 6 5 4 6 5 6 5 7 6 7 6 5 5 5
8 10 10 15 18 18 15 13 10 10 10 10 10 10 12 12 13 12 13 13 12 11 11 11 10 10 9 9 8 9 9 9 9 9 7 4 4 9 9 8 7 8 10 10 10 9 9 7 7 7 8 8 8 10 9 10 11 10 9 9 7 6 6 5 2 2 2 1 3 3 4 3 5 5 5 5 5 6 6 7 8 5 6 5 5
8 9 7 7 9 11 12 12 11 10 10 10 9 10 11 11 12 12 13 13 13 11 10 9 10 9 11 10 9 9 8 9 9 9 8 8 6 3 2 6 7 8 10 11 12 13 11 11 10 7 8 11 10 4 2 8 10 11 10 9 8 7 6 6 4 2 1 0 3 4 4 3 3 4 3 5 4 4 4 4 7 5 6 5 4
Wind_Direction
134 137 144 140 136 133 132 126 122 125 127 128 127 131 135 137 136 136 140 139 142 139 135 129 125 123 111 113 110 102 97 87 73 63 65 59 57 59 60 58 58 59 50 55 56 67 58 54 57 45 36 54 59 47 10 18 15 30 67 50 52 48 23 357 6 347 72 68 57 69 71 59 74 70 66 59 54 53 52 50 44 42 36 33 30
145 151 147 140 136 136 131 128 133 133 140 139 142 146 144 146 143 143 143 147 146 133 131 129 154 155 138 131 121 102 91 90 88 66 67 62 56 54 57 56 57 54 55 53 55 56 65 60 52 47 49 60 62 40 38 37 34 32 51 71 34 65 48 1 348 50 41 96 123 71 61 64 67 71 67 55 55 52 50 52 44 43 38 31 25
162 162 147 141 138 138 137 138 145 143 148 147 146 146 148 148 146 146 148 143 133 136 139 137 125 120 122 128 124 104 65 71 83 79 76 74 61 57 57 60 65 58 54 59 62 52 65 71 62 54 45 48 62 42 27 32 20 27 36 114 95 49 68 27 20 22 100 117 81 90 12 117 198 60 74 58 56 49 49 50 44 44 39 33 26
176 165 156 143 139 141 148 154 148 141 146 149 154 152 151 148 148 146 145 134 133 129 117 110 109 93 79 95 88 98 118 100 87 79 73 70 59 55 53 58 65 65 59 66 71 65 68 74 73 60 55 45 64 69 46 40 26 32 36 52 92 84 39 43 29 34 52 153 57 88 124 109 40 1 29 69 61 54 45 43 43 39 37 33 30
171 165 155 149 147 155 163 159 150 153 157 161 158 155 155 154 152 152 147 143 136 132 129 124 113 97 96 90 97 96 84 96 90 68 63 73 75 52 41 58 62 70 67 66 74 71 68 73 77 73 69 51 59 70 63 51 47 41 40 59 48 107 91 71 41 36 44 30 98 114 70 44 70 291 349 1 27 56 47 45 38 36 35 31 29
183 172 156 146 140 148 162 163 162 158 162 162 156 152 150 146 148 147 141 139 140 141 140 136 134 134 134 132 130 124 125 124 112 119 90 69 76 88 64 53 67 71 59 58 63 71 70 66 75 77 70 63 62 68 61 53 41 44 30 54 65 39 106 88 75 47 47 46 49 60 79 131 200 280 58 73 24 86 75 51 32 32 37 35 33
175 167 161 153 147 152 170 172 165 165 164 157 155 153 150 146 152 154 150 145 145 147 149 139 135 145 152 146 138 139 127 81 92 97 105 100 93 80 75 63 55 70 65 62 62 62 71 69 73 75 72 63 55 57 54 49 49 49 47 59 55 65 72 78 57 14 60 47 45 58 62 51 31 65 76 247 1 323 33 28 17 6 30 35 29
181 175 169 161 157 167 173 165 165 169 156 153 152 151 151 148 150 152 152 149 153 153 155 153 147 151 142 133 127 121 121 125 120 109 106 106 91 80 76 65 60 59 68 65 60 65 68 64 64 68 68 58 59 53 59 56 64 56 63 68 69 60 65 79 74 37 64 46 40 54 60 57 48 51 43 89 134 300 314 35 65 341 16 39 30
180 176 174 167 163 168 170 168 165 159 158 157 155 149 142 142 145 150 152 150 153 160 155 155 151 148 141 130 109 101 116 120 120 111 109 105 96 83 75 71 65 55 46 62 61 52 61 66 64 66 66 64 67 65 63 64 69 73 67 63 66 64 63 72 74 60 56 47 41 41 49 57 54 53 40 37 60 5 301 17 338 2 329 0 29
182 175 168 169 163 166 167 159 160 166 152 147 143 139 139 140 152 153 153 151 155 160 154 149 145 138 134 131 125 125 121 112 109 114 110 106 100 94 82 76 68 62 44 44 61 56 62 61 65 68 73 74 70 73 75 71 68 70 70 74 73 74 65 67 73 73 67 58 56 59 61 41 60 42 37 23 30 59 17 340 342 342 344 341 33
181 174 170 165 155 158 161 167 165 153 147 146 146 144 143 152 156 155 154 156 159 157 153 148 141 143 137 137 134 133 130 125 121 114 117 110 106 97 88 75 64 67 61 53 56 56 66 64 70 71 68 73 75 73 74 80 77 77 74 72 69 74 72 73 73 68 70 64 58 54 63 57 66 64 33 30 53 24 345 341 336 356 317 330 3
175 172 172 163 155 163 165 168 165 159 148 152 151 143 152 157 152 144 150 156 156 154 149 141 137 135 135 137 137 139 138 140 137 138 138 125 119 107 97 83 68 67 64 65 52 52 68 65 66 73 73 75 73 79 78 80 80 77 73 73 74 72 74 76 77 76 71 74 65 58 63 65 62 66 60 48 50 49 49 338 347 331 292 186 310
174 175 171 171 169 166 163 169 167 161 157 157 153 151 153 154 154 149 154 155 154 152 149 143 140 143 144 141 140 140 139 137 136 133 138 126 122 114 105 100 89 73 57 74 50 56 69 73 70 76 78 75 85 82 80 80 82 80 79 76 77 73 76 82 82 77 78 75 76 59 64 60 60 50 47 53 48 72 47 16 349 330 314 314 334
174 173 176 176 173 176 169 170 171 162 156 157 154 151 155 156 156 153 150 150 148 148 146 146 146 145 143 141 138 137 132 131 132 132 126 117 118 114 114 114 102 100 91 76 69 76 68 70 80 78 79 87 87 87 85 83 83 84 82 82 80 83 85 85 85 85 77 73 72 75 60 58 60 46 51 52 49 39 35 25 332 319 271 324 324
177 175 177 174 173 175 172 170 169 161 157 155 154 150 156 157 153 144 137 144 145 145 144 142 139 137 132 125 127 128 128 124 122 122 123 119 111 109 103 103 106 102 93 85 73 81 78 76 74 78 77 81 86 87 85 85 86 85 84 86 84 88 88 87 86 87 83 78 69 68 73 59 55 53 52 53 51 55 59 32 19 9 357 354 350
179 177 175 173 173 170 168 166 167 159 160 152 150 154 161 157 148 145 142 142 141 138 138 135 131 128 126 127 126 123 115 115 112 104 105 110 113 112 107 100 104 105 85 86 65 79 82 80 72 73 79 83 86 93 95 95 94 94 90 89 89 88 93 88 88 86 82 79 76 70 72 65 55 57 55 53 58 65 69 65 54 63 37 353 343
180 178 176 172 171 167 167 164 164 161 162 155 155 164 159 148 141 133 132 131 132 132 129 129 128 126 125 126 129 127 129 130 128 122 116 107 107 107 107 108 103 96 98 86 86 74 76 83 82 76 76 84 88 92 97 98 96 94 95 96 93 87 89 91 88 84 82 77 74 71 80 80 66 58 57 61 59 59 62 73 67 67 64 31 344
177 178 175 171 171 167 164 162 165 165 159 152 158 161 156 151 141 136 139 133 132 129 129 131 130 126 128 128 127 129 128 125 125 124 120 115 110 110 115 108 102 104 100 92 87 82 74 78 86 81 81 83 91 93 98 100 99 94 95 91 98 99 93 86 82 87 81 80 75 69 67 74 72 66 68 60 57 53 48 39 59 65 83 22 315
170 174 177 175 170 170 165 160 159 163 154 152 150 149 147 147 143 142 142 140 139 132 129 120 124 127 129 131 130 126 125 122 121 121 120 121 123 121 112 110 105 101 100 98 93 89 89 79 86 89 85 86 88 96 101 102 104 104 100 100 96 98 97 92 86 87 81 80 76 72 61 70 57 71 63 49 42 43 27 30 9 38 16 223 281
174 174 175 174 170 166 162 155 157 161 152 149 149 149 148 147 135 120 120 126 126 128 131 125 125 124 121 117 116 122 127 131 133 129 126 126 124 122 119 109 111 102 100 98 96 97 96 97 87 94 90 89 92 96 105 108 105 106 113 104 100 99 95 92 85 72 82 80 82 73 61 61 37 52 42 29 29 26 29 8 357 330 318 235 241
173 173 170 167 163 159 158 154 149 150 146 146 152 154 148 144 133 133 134 131 130 132 126 125 125 125 127 129 129 129 129 127 124 122 120 120 122 113 107 114 105 98 108 100 98 97 97 98 97 86 92 97 106 107 112 114 110 110 105 107 103 100 101 102 98 85 73 85 82 79 60 49 40 45 29 23 16 7 358 356 329 327 319 312 268
168 166 164 164 159 155 151 150 146 147 152 152 152 149 148 152 144 139 135 138 132 133 131 127 129 130 130 129 128 128 128 125 120 122 121 122 120 118 121 112 104 93 98 107 100 99 95 98 97 93 90 95 101 113 124 121 118 115 109 109 111 105 107 110 106 103 89 74 81 73 43 33 34 42 23 20 3 351 349 330 335 329 321 322 326
165 161 162 161 157 155 154 155 156 155 157 154 153 158 157 151 147 143 139 140 139 135 133 132 132 133 133 132 132 133 131 125 123 123 123 120 118 118 118 116 112 106 87 91 103 102 98 97 96 94 99 96 106 117 128 125 126 126 124 121 123 126 128 128 122 126 119 115 70 54 31 24 19 24 12 358 354 344 327 323 322 329 329 319 319
158 153 153 154 149 147 151 156 158 158 159 162 157 154 155 154 150 142 139 140 137 137 137 137 136 135 136 136 137 134 129 128 126 128 126 123 121 118 115 112 113 110 105 90 88 101 98 102 101 97 98 109 113 118 122 130 138 136 134 134 135 133 134 140 142 143 133 118 121 58 13 20 27 20 359 347 341 327 329 326 322 329 324 320 316
159 156 154 154 152 149 157 161 161 159 159 161 158 157 157 157 154 144 141 144 140 141 140 141 140 136 141 141 139 137 134 132 130 131 129 128 125 120 118 117 116 105 103 108 93 93 103 103 110 115 113 117 128 132 127 130 133 141 138 138 140 140 146 154 157 151 140 136 147 88 360 26 33 7 340 340 329 328 319 323 327 324 329 325 320
161 155 152 159 160 153 157 164 164 163 161 162 158 157 160 159 161 147 141 142 144 144 143 141 140 143 147 141 139 138 137 136 134 134 134 133 130 126 121 112 116 113 107 104 111 106 112 111 108 115 116 120 124 129 130 139 142 137 128 126 133 137 150 159 155 132 126 158 175 240 308 26 24 342 323 319 320 321 315 323 331 330 334 325 310
164 160 152 149 155 158 161 168 167 165 162 162 161 159 159 160 162 149 145 146 150 148 146 143 144 143 141 146 146 143 139 137 136 135 134 131 129 129 123 121 116 117 120 119 112 111 108 113 115 118 122 125 121 117 123 130 138 140 139 135 130 130 126 126 74 101 129 184 216 233 310 352 310 296 315 318 318 321 327 324 330 333 325 315 305
159 157 156 159 164 164 165 167 167 168 167 163 161 160 160 162 159 150 145 145 148 145 146 144 146 147 149 150 145 140 139 136 135 135 135 132 127 122 118 117 118 119 121 126 130 125 122 108 116 116 120 119 114 112 114 123 132 146 140 138 142 144 155 84 76 66 130 205 234 267 279 289 294 289 293 316 330 329 335 330 331 329 317 310 308
162 164 163 162 165 170 169 168 168 164 165 164 159 157 157 157 158 157 151 154 152 149 150 149 148 151 155 147 142 142 138 137 136 134 133 131 124 120 119 121 120 117 113 117 119 122 121 107 97 106 105 102 110 120 143 144 133 130 134 135 143 140 114 104 93 82 68 278 274 279 280 281 315 355 358 349 344 347 350 335 324 321 310 311 304
169 171 171 170 169 167 169 167 165 166 165 165 165 160 158 160 159 160 152 150 150 153 152 152 155 156 152 149 144 142 143 140 139 140 137 131 125 125 126 125 122 119 120 120 119 117 117 122 117 105 98 95 93 108 146 160 155 143 134 124 118 131 138 132 129 127 121 279 262 269 292 322 348 347 347 351 352 348 344 338 320 313 308 304 306
173 172 174 173 170 168 166 168 169 169 169 167 168 163 155 154 157 161 157 156 156 155 155 156 157 156 151 145 144 146 144 145 143 136 134 128 126 128 125 124 123 126 129 131 125 121 119 119 120 119 107 97 91 111 135 127 126 128 126 126 128 122 123 134 159 175 184 228 252 281 300 332 337 340 341 353 349 347 342 333 325 320 315 311 315
176 175 173 173 172 170 174 176 173 170 167 167 166 164 158 159 159 164 162 156 156 157 157 158 154 152 152 152 149 147 143 139 137 137 137 134 133 131 129 130 130 130 128 119 121 123 122 123 115 109 105 108 104 117 124 115 117 117 115 118 116 120 116 120 154 186 203 197 228 277 330 334 320 325 349 353 346 342 335 326 320 319 316 316 310
177 176 177 176 177 177 175 173 171 172 174 173 165 161 166 160 163 166 158 160 160 160 159 157 156 155 156 153 150 147 142 142 146 147 143 140 137 131 129 133 135 136 126 127 132 125 126 133 124 117 111 114 119 125 121 114 111 109 108 106 99 104 110 112 125 181 193 201 204 7 347 326 321 334 355 354 347 335 324 317 316 316 315 316 318
179 179 179 179 174 173 172 174 176 174 169 162 166 166 164 163 159 155 161 163 159 159 158 157 156 157 155 153 151 148 150 151 147 143 142 142 140 137 138 137 127 126 129 127 130 130 135 138 134 124 124 130 126 134 122 114 113 112 111 105 108 104 100 94 85 108 131 112 88 95 336 319 323 331 346 354 343 324 314 313 316 314 310 311 318
179 178 177 175 174 170 168 170 172 170 164 157 159 154 143 142 149 155 159 152 152 149 151 153 156 154 153 154 153 151 147 149 150 146 144 142 137 133 137 142 141 144 145 149 150 144 149 142 135 129 127 127 138 142 127 117 115 113 111 108 102 95 89 78 73 76 95 102 112 143 256 289 303 317 337 354 331 312 308 302 306 309 309 312 307
184 181 179 174 175 176 177 178 164 157 160 161 158 151 152 156 156 158 158 156 152 151 148 152 155 158 160 159 155 154 149 147 146 147 143 141 140 143 141 139 128 123 120 123 131 135 142 144 148 136 124 126 152 156 133 122 114 109 102 90 97 94 90 84 64 58 50 61 95 27 335 316 319 313 329 339 324 307 295 304 309 305 308 308 307
184 181 180 179 174 169 163 153 158 162 158 160 155 154 152 149 152 154 153 153 153 155 157 160 160 160 161 159 155 150 152 154 152 151 148 146 144 142 137 138 131 138 142 152 162 161 155 147 147 147 130 134 142 153 130 118 112 108 95 93 99 92 84 76 49 9 17 12 350 283 266 323 317 315 322 328 319 315 301 309 308 309 305 309 307
146 138 142 155 159 151 152 157 157 161 160 153 152 152 150 152 155 155 155 156 159 161 162 162 163 164 160 158 158 155 154 153 152 153 150 147 143 139 144 150 146 149 155 163 157 138 148 156 145 147 148 134 146 142 118 106 100 95 104 111 108 102 83 55 12 356 351 357 308 341 351 334 327 313 321 322 315 316 311 307 308 312 318 318 313
167 166 164 162 162 160 158 157 158 161 161 153 153 152 152 156 157 160 162 163 168 165 167 167 165 161 156 154 154 156 155 152 154 156 151 148 151 153 151 146 148 148 153 152 143 138 141 140 148 153 153 136 143 115 94 90 96 102 106 109 110 103 87 49 29 356 327 351 331 319 338 349 327 311 316 313 319 316 296 300 303 308 312 316 319
158 158 160 154 146 144 156 163 166 163 155 155 154 157 160 160 164 162 165 170 173 171 164 154 153 153 154 156 158 158 160 159 156 153 155 151 147 143 151 152 156 153 148 155 147 149 152 164 164 185 160 152 144 136 87 97 97 116 127 121 130 98 95 74 28 35 360 349 351 340 333 348 334 325 324 322 316 315 291 297 306 313 307 311 317
160 158 150 154 162 164 168 169 167 159 157 157 157 158 163 163 161 165 175 177 164 152 153 154 153 154 158 161 162 164 161 158 155 154 154 150 153 153 153 155 155 152 144 147 152 158 151 160 175 194 186 180 176 154 125 95 99 108 144 132 113 116 142 119 98 34 45 355 330 328 317 324 326 321 318 313 309 309 312 298 310 286 295 295 307
148 152 154 156 159 160 157 156 155 155 157 158 160 162 163 160 162 176 176 151 148 153 152 153 157 159 161 163 163 159 156 151 152 149 150 152 157 157 160 158 153 152 158 158 155 158 164 167 176 195 212 217 242 175 160 132 138 127 136 153 127 176 165 133 71 18 344 322 289 300 307 312 313 311 307 304 304 306 311 318 304 307 306 316 322
150 159 158 150 156 164 165 161 157 159 160 163 162 162 161 161 173 175 154 151 152 154 155 156 157 160 163 163 160 154 152 150 153 155 151 156 158 160 159 155 156 158 159 157 159 162 159 159 179 214 225 227 233 264 159 172 180 182 174 164 187 177 176 155 113 310 298 293 296 287 285 293 300 302 302 301 300 302 311 306 312 317 318 320 321
160 159 162 163 162 160 156 156 157 159 162 161 162 160 161 167 175 151 142 143 148 152 152 153 159 161 160 161 158 155 152 153 153 153 154 154 161 161 158 163 159 155 163 162 170 163 159 161 181 209 224 234 227 214 238 215 206 198 204 204 229 243 199 190 179 234 260 264 290 295 293 302 302 301 298 296 293 295 299 309 317 316 320 324 321
163 170 163 163 161 159 153 152 158 160 162 164 165 160 161 169 157 144 149 151 154 154 153 157 160 162 160 156 154 156 155 154 155 153 154 159 158 157 157 166 163 166 168 169 170 168 173 185 178 198 213 222 227 218 234 235 229 219 202 206 221 225 254 220 248 255 254 253 266 282 292 294 295 293 292 290 292 306 317 315 313 317 322 327 325
152 154 165 158 148 147 149 150 156 160 160 162 164 161 165 166 151 154 154 153 152 153 156 160 161 159 158 154 154 155 156 158 158 161 160 161 160 165 164 167 168 163 165 168 171 175 184 181 195 202 210 215 218 218 232 236 232 222 214 219 225 225 242 234 247 270 264 271 279 281 282 287 283 281 308 331 320 308 312 307 310 319 319 312 323
163 156 145 144 147 149 151 151 153 159 158 161 162 172 164 146 154 153 153 153 155 157 157 157 159 158 158 158 157 159 157 158 160 160 160 161 163 164 161 163 166 168 175 174 172 180 184 186 197 209 212 210 221 224 233 236 224 221 230 225 226 254 253 266 277 263 271 277 264 257 276 286 301 299 289 280 285 306 314 318 323 317 305 305 305
144 147 153 149 156 156 154 154 157 162 164 165 166 160 145 146 150 151 152 153 155 158 160 164 161 160 161 161 161 156 155 160 168 165 162 164 168 167 166 174 178 181 180 180 176 181 186 190 200 199 191 201 230 236 235 229 221 213 220 206 210 226 228 220 247 257 263 293 306 319 319 329 316 318 313 326 331 326 307 305 308 309 303 304 300
152 157 146 136 117 135 153 157 161 163 161 163 161 149 145 149 152 152 154 154 157 158 158 157 157 157 160 162 159 163 166 163 166 170 173 172 170 173 178 180 189 181 183 178 176 183 191 196 190 185 182 207 221 234 237 212 209 195 193 194 204 218 218 226 235 263 323 351 3 338 353 341 359 339 321 311 307 318 312 303 298 301 312 314 316
153 156 164 164 165 161 162 161 160 162 161 159 153 148 152 153 153 156 156 156 153 153 154 158 160 160 158 160 163 168 166 165 164 167 158 137 158 172 170 169 182 190 188 183 171 184 193 182 188 207 189 187 203 220 233 201 204 199 195 192 198 188 188 208 210 129 118 356 345 326 300 294 308 324 311 305 298 304 309 315 304 313 312 311 318
141 136 138 147 147 148 148 154 160 161 159 155 148 150 150 151 154 157 158 156 153 155 159 160 161 165 168 168 165 166 167 167 166 162 160 160 136 62 95 166 173 184 190 193 195 205 190 184 185 205 220 227 235 246 190 199 205 205 196 190 190 183 188 213 179 105 46 265 286 296 291 298 285 273 282 281 284 293 297 303 300 304 293 301 299